Dane County Regional Airport (Madison, WI) (MSN)


Airport Diagram
Current Weather/Forecast (VFR Conditions)
METAR KMSN 290253Z 00000KT 10SM -RA FEW075 OVC100 17/16 A2988 RMK AO2 RAB50 SLP117 P0000 60004 T01670156 50012
TAF KMSN 290323Z 2903/2924 29005KT P6SM VCSH OVC090 FM290500 29005KT P6SM OVC100 FM291100 32008KT P6SM SKC FM291500 32011G17KT P6SM SCT050 FM291800 32012G18KT P6SM BKN050

All Charts
General
Chart Name Download
AIRPORT DIAGRAM
TAKEOFF MINIMUMS
ALTERNATE MINIMUMS
HOT SPOT
LAHSO

Approaches
Chart Name Download
ILS OR LOC RWY 18
ILS OR LOC RWY 21
ILS OR LOC/DME RWY 36
ILS RWY 36 (SA CAT I)
ILS RWY 18 (SA CAT I - II)
ILS RWY 36 (CAT II - III)
RNAV (GPS) RWY 03
RNAV (GPS) RWY 14
RNAV (GPS) RWY 18
RNAV (GPS) RWY 21
RNAV (GPS) RWY 32
RNAV (GPS) RWY 36
VOR RWY 14
VOR RWY 18
VOR RWY 21
VOR RWY 32
VOR RWY 36
HI-TACAN RWY 18
HI-TACAN RWY 36